Lapse_Rate
6.3 6.1 6.7 7.2 6.7 6.1 6.1 5.6 5.8 6.9 6.9 6.2 6.3 6.1 7.1 6.7 6.6 6.8 6.9 6.9 6.9 6.9 6.9 6.9 7.0 7.0 7.0 6.9 6.9 6.9 6.9 6.8 6.6 6.4 6.2 6.2 6.2 6.3 6.4 6.5 6.3 6.1 6.4 6.5
6.2 6.1 6.9 6.8 6.6 6.2 6.0 6.0 6.1 6.9 7.0 5.8 5.8 5.8 6.5 6.6 6.8 6.8 6.9 6.8 6.9 6.9 7.0 7.0 7.1 7.0 7.0 7.0 6.9 6.8 6.7 6.5 6.3 6.2 6.1 6.0 6.2 6.3 6.3 6.5 6.4 6.4 6.4 6.5
6.1 6.1 6.2 6.3 6.5 6.3 6.2 6.2 6.7 6.4 6.7 6.0 5.6 5.7 6.3 6.9 6.7 6.8 6.9 7.0 6.9 7.0 7.0 7.1 7.0 7.0 7.0 6.9 6.8 6.7 6.6 6.3 6.2 6.0 6.1 6.2 6.3 6.4 6.4 6.3 6.3 6.3 6.6 6.7
5.2 5.5 6.0 6.0 6.0 6.4 6.0 6.7 6.3 6.1 5.8 5.5 6.0 5.6 5.9 6.1 6.6 6.9 7.0 7.1 7.1 7.1 7.1 7.1 7.0 7.1 7.0 6.8 6.7 6.7 6.4 6.2 6.0 6.0 6.1 6.3 6.4 6.4 6.2 6.1 6.3 6.4 6.3 6.4
5.6 5.4 5.7 5.9 6.4 6.4 5.8 6.0 6.1 5.9 5.9 5.6 5.3 5.5 5.4 5.2 6.0 6.8 6.8 6.9 7.1 7.2 7.0 6.9 6.9 6.9 6.8 6.7 6.6 6.5 6.1 6.0 6.1 6.1 6.3 6.4 6.4 6.2 6.3 6.4 6.3 6.2 6.5 6.6
4.7 5.1 5.3 5.8 6.1 6.3 5.8 5.6 5.8 6.0 5.8 5.5 5.6 6.0 5.4 6.0 5.8 6.1 6.7 7.0 6.9 7.1 7.1 7.0 6.9 6.9 6.9 6.8 6.6 6.2 6.0 6.0 6.1 6.4 6.4 6.4 6.4 6.4 6.5 6.5 6.6 6.5 6.3 6.5
5.3 5.1 5.1 5.1 5.4 5.7 5.9 5.6 6.0 6.0 6.0 6.1 6.3 5.9 5.5 5.4 5.6 5.9 6.1 6.4 6.5 6.8 7.0 7.1 7.0 7.1 7.0 6.5 6.0 5.8 5.9 6.2 6.3 6.5 6.5 6.5 6.6 6.6 6.5 6.5 6.4 6.4 6.0 6.1
5.6 5.7 6.2 5.6 5.8 6.1 6.0 6.2 6.4 6.5 6.6 6.8 6.1 5.5 5.8 5.9 5.8 6.0 6.3 6.5 6.5 6.6 6.8 6.9 7.0 7.0 6.5 6.1 6.0 6.4 6.7 6.5 6.4 6.6 6.6 6.6 6.7 6.4 6.4 6.5 6.2 6.2 6.0 6.1
6.0 5.7 6.1 6.7 6.6 6.3 5.9 6.0 6.5 6.6 6.4 6.3 6.2 5.7 5.8 5.9 6.1 6.2 6.2 6.3 6.4 6.6 6.8 7.0 7.1 6.8 6.8 6.7 6.7 6.8 6.9 6.7 6.5 6.7 6.9 6.6 6.5 6.7 6.6 6.3 6.3 6.4 6.5 6.5
6.0 5.8 6.1 6.3 6.6 6.7 6.5 6.8 6.4 6.3 6.6 6.5 6.5 6.0 6.4 6.7 6.6 6.4 6.2 6.3 6.4 6.5 6.7 6.9 6.9 6.8 6.8 6.8 6.7 6.8 6.6 6.6 6.7 6.8 7.0 6.9 6.6 6.5 6.5 6.5 6.7 6.9 6.9 6.6
5.9 5.6 5.7 5.8 6.2 6.6 6.5 6.2 6.5 6.6 6.8 7.2 7.0 7.2 6.3 6.8 6.2 5.9 6.0 5.8 6.1 6.2 6.5 6.7 7.0 7.0 6.9 6.8 6.7 6.7 6.7 6.8 7.0 7.1 7.1 6.8 6.5 6.9 6.6 6.6 6.6 6.6 6.4 6.6
6.2 6.0 5.5 5.8 6.1 6.0 6.2 6.5 6.3 6.2 6.5 6.4 6.5 6.8 6.3 6.4 6.1 5.9 5.7 5.7 6.2 6.5 6.5 6.8 7.0 7.1 7.1 7.1 7.0 6.9 7.0 7.1 6.9 6.8 6.9 6.7 7.0 6.9 6.8 6.6 6.6 6.2 6.3 6.5
5.9 6.0 5.9 6.0 6.1 6.3 6.4 5.7 5.6 5.8 6.0 6.3 6.6 6.4 6.7 6.6 6.5 6.5 6.2 6.2 6.4 6.6 6.7 6.6 6.9 7.0 7.0 7.0 7.1 7.2 7.2 7.1 6.9 7.2 7.0 6.7 6.6 6.3 6.7 6.7 6.6 6.4 6.5 6.4
5.8 5.8 5.6 5.8 5.1 5.4 5.5 5.6 5.4 5.3 5.3 5.3 5.3 5.7 6.3 6.2 5.6 5.9 6.0 6.2 6.4 6.5 6.5 6.8 7.2 7.3 7.1 7.1 7.3 7.3 7.2 7.1 7.0 7.2 7.1 6.5 6.7 6.6 6.8 6.4 6.3 6.4 6.5 6.3
5.7 5.7 5.7 5.5 5.4 5.5 5.6 5.7 5.6 5.5 5.7 5.4 5.8 5.7 6.6 6.9 6.0 5.9 6.6 6.3 6.4 6.7 7.0 7.3 7.2 7.2 7.3 7.5 7.3 7.4 7.5 7.3 7.3 7.2 7.0 6.8 6.9 6.8 6.6 6.5 6.3 6.5 6.2 6.2
6.2 6.0 6.2 6.0 6.5 6.4 5.9 5.8 6.3 6.2 6.1 5.8 6.1 6.0 7.4 6.9 7.0 6.5 6.7 6.8 7.2 7.2 7.1 7.2 7.2 7.4 7.8 7.8 7.7 7.6 7.5 7.5 7.5 6.9 6.9 7.0 6.9 6.6 6.7 6.5 6.6 6.2 6.0 6.2
6.7 6.5 6.4 6.2 6.4 6.6 6.1 6.5 6.8 7.1 7.3 7.0 6.5 7.1 6.9 6.7 6.7 6.8 6.9 7.0 7.0 7.0 7.2 7.5 7.8 7.9 7.9 7.9 7.8 7.6 7.5 7.4 7.1 7.1 7.1 7.0 6.9 6.8 6.6 6.7 6.5 6.1 6.2 6.1
7.0 7.0 7.0 6.9 6.8 6.8 7.2 7.0 7.0 7.2 7.3 7.6 7.4 7.0 6.8 7.1 7.2 7.4 7.7 7.8 7.7 7.6 7.8 7.9 7.9 8.0 7.9 7.8 7.7 7.7 7.7 7.6 7.3 7.0 7.2 7.2 6.8 6.7 6.9 6.6 6.2 6.2 6.1 6.0
7.4 7.4 7.4 7.4 7.3 7.2 6.9 7.3 7.5 7.4 7.3 7.4 7.6 7.8 7.6 7.4 7.4 7.4 8.1 7.9 8.0 8.0 8.0 7.9 7.8 7.7 7.5 7.7 7.8 7.8 7.8 7.8 7.2 7.3 6.9 6.9 6.9 6.5 6.7 6.4 6.4 6.1 6.0 6.0
7.1 7.3 7.4 7.5 7.3 7.4 7.4 7.6 8.0 7.9 7.4 7.9 7.6 7.6 7.8 7.9 7.8 8.0 7.7 7.6 7.5 7.5 7.6 7.5 7.5 7.5 7.7 7.8 7.8 7.9 7.9 7.7 7.3 7.2 6.9 6.9 6.7 6.4 6.3 6.3 6.2 6.1 6.0 6.0
7.2 7.1 7.2 7.5 7.7 7.6 7.9 7.8 7.7 7.5 7.8 7.8 7.7 7.6 7.8 7.9 7.8 7.8 7.9 7.7 7.8 7.8 7.9 7.8 7.8 7.9 7.9 7.9 7.9 7.8 7.7 7.5 7.1 6.9 6.8 6.7 6.5 6.3 6.3 6.1 6.1 6.0 5.9 5.6
7.7 7.5 7.2 7.4 7.5 7.4 8.2 8.0 7.8 8.0 7.9 7.8 7.6 7.6 7.8 8.0 7.9 7.8 7.9 7.9 8.0 8.1 8.2 8.1 7.8 7.7 7.6 7.5 7.5 7.3 6.9 6.9 6.8 6.7 6.5 6.4 6.3 6.3 6.1 6.0 6.1 6.0 5.5 5.4
7.6 7.7 7.9 8.0 8.0 8.3 8.2 8.2 8.1 8.2 7.8 7.6 7.6 7.6 7.7 7.9 8.1 8.2 8.1 8.0 8.0 8.0 7.8 7.7 7.5 7.4 7.4 7.3 7.2 7.0 7.0 6.9 6.6 6.5 6.4 6.3 6.3 6.1 6.0 6.0 6.0 5.7 5.4 5.5
7.5 7.8 7.8 7.8 7.9 8.1 8.4 8.2 8.2 8.3 7.9 7.9 8.0 8.1 8.1 8.2 8.3 8.3 7.9 7.7 7.7 7.6 7.5 7.5 7.6 7.4 7.3 7.0 6.7 7.0 6.8 6.8 6.5 6.5 6.5 6.3 6.2 6.0 5.9 6.0 5.8 5.4 5.3 5.5
7.7 7.9 7.8 7.8 7.9 8.3 8.7 8.7 8.3 8.0 7.8 7.9 7.9 7.8 8.0 8.2 8.1 8.0 7.6 7.5 7.4 7.3 7.5 7.4 7.3 7.3 7.1 6.9 6.5 6.4 6.6 6.6 6.5 6.4 6.3 6.2 6.0 6.0 5.9 5.9 5.7 5.3 5.4 5.5
7.7 7.7 7.9 8.2 8.7 8.6 8.4 8.2 8.0 7.9 8.0 7.8 7.8 7.7 7.8 8.1 7.9 7.8 7.7 7.3 7.3 7.6 7.4 7.3 7.3 7.2 7.1 7.0 6.8 6.6 6.6 6.6 6.4 6.3 6.3 6.1 6.0 5.9 5.8 5.7 5.4 5.3 5.5 5.5
Wind_Speed
4 3 11 14 12 3 1 3 5 3 3 3 6 9 14 7 10 12 13 14 15 15 10 11 11 10 10 9 11 11 12 10 7 5 5 5 6 5 7 11 13 13 12 11
4 11 14 4 7 9 6 8 7 8 8 6 10 14 14 8 10 17 18 18 19 16 15 14 13 11 9 10 10 10 10 9 5 4 5 4 5 6 7 10 11 11 13 14
14 5 4 10 7 8 10 11 7 10 7 5 7 17 13 11 14 13 15 19 20 22 21 18 16 13 11 11 10 9 9 8 6 8 7 7 7 5 3 5 5 12 14 14
9 10 7 7 7 11 10 11 10 7 3 7 2 13 8 7 13 10 14 16 16 16 16 17 17 14 13 11 10 10 9 9 8 8 7 5 4 4 3 4 5 8 12 11
7 6 10 16 14 8 4 4 9 8 6 4 8 7 2 1 5 10 8 11 13 15 18 19 17 15 12 11 10 10 10 9 9 8 9 8 8 7 5 5 6 7 9 12
8 2 6 8 4 12 2 3 3 3 2 9 10 10 24 11 12 2 4 7 13 16 17 17 16 15 13 11 11 11 13 11 10 9 9 9 11 9 7 5 5 5 5 7
11 16 4 3 4 4 6 5 3 5 5 9 10 12 21 2 3 3 5 9 14 15 17 19 20 17 15 15 13 11 11 11 9 9 9 9 8 8 8 6 5 5 4 4
6 5 16 10 22 16 14 11 7 7 8 13 3 11 7 2 3 4 4 8 11 13 14 17 19 17 16 14 13 10 9 10 9 9 10 10 10 5 6 6 5 4 4 4
6 5 2 3 6 17 9 11 13 7 3 6 7 6 4 1 2 1 3 7 10 13 15 18 19 16 16 15 13 12 12 11 10 10 8 9 7 8 7 7 5 5 4 5
1 4 1 1 4 6 5 3 5 4 9 16 14 7 8 5 8 2 4 5 7 10 12 15 16 15 14 13 11 11 10 12 11 9 8 7 8 8 8 6 6 5 6 7
2 3 1 2 2 3 3 5 4 3 5 7 11 6 6 7 1 2 3 4 6 10 13 15 15 13 13 13 12 12 12 12 12 11 10 9 8 8 6 6 4 5 6 6
6 2 2 5 4 8 6 3 4 4 8 2 4 9 7 10 9 13 11 4 7 9 9 10 10 13 14 14 14 13 12 12 12 12 12 10 9 8 7 6 5 5 5 6
3 3 3 4 4 5 7 7 6 3 2 10 7 4 2 8 13 13 13 13 9 7 10 12 12 13 14 14 14 14 14 13 12 12 11 11 10 8 7 6 5 5 5 5
4 2 2 3 4 2 2 6 4 2 1 3 4 11 15 16 8 15 18 20 14 6 11 13 14 16 17 16 16 15 13 13 13 12 11 10 10 9 7 7 6 5 4 6
3 3 3 4 2 3 5 12 9 6 8 6 8 10 19 17 3 10 17 15 17 17 8 13 15 14 14 15 16 15 15 15 14 12 10 10 10 10 8 8 7 6 4 5
9 5 6 11 15 13 13 17 16 19 19 18 16 20 19 18 13 12 16 15 16 15 12 9 12 14 16 17 15 14 15 14 13 12 10 9 11 10 9 8 8 7 6 7
9 5 6 6 6 4 8 17 18 11 10 11 13 20 15 13 10 11 13 11 13 9 5 6 12 13 13 15 14 16 15 13 12 11 11 9 9 10 10 10 8 7 6 7
7 7 5 6 2 8 5 1 9 11 11 11 14 14 12 12 7 6 8 10 6 5 5 5 8 10 12 12 14 12 13 12 12 11 11 11 10 9 10 9 8 8 7 7
9 9 6 6 8 8 14 7 6 7 12 14 13 12 10 2 4 9 2 4 4 2 3 4 4 8 11 13 12 13 13 12 12 11 12 10 10 10 10 9 9 7 7 6
9 2 7 4 4 5 11 5 4 5 12 6 7 8 5 1 4 4 3 2 2 4 2 1 6 10 11 10 13 13 12 12 12 11 11 11 11 10 9 10 9 6 6 7
6 4 13 11 9 8 3 5 6 7 5 3 1 2 2 3 3 1 1 2 2 2 2 5 5 6 8 11 12 13 13 12 11 11 12 12 12 12 11 10 8 8 7 6
9 9 5 5 6 11 6 5 6 4 3 3 1 2 4 7 5 3 4 2 1 0 3 5 7 7 8 9 10 11 11 11 12 12 12 12 12 10 9 11 8 8 7 6
8 6 6 9 8 3 6 4 4 5 5 3 3 7 7 5 3 2 4 4 4 4 4 5 7 8 8 8 9 11 9 13 13 14 13 13 13 12 11 11 9 7 6 5
3 3 6 3 7 9 9 6 7 8 7 5 5 6 5 4 3 3 2 4 5 6 6 6 8 8 8 9 9 11 13 14 14 14 14 13 12 12 11 8 7 6 6 5
4 10 7 6 0 4 8 11 9 9 6 8 5 6 6 6 5 6 5 6 6 6 6 7 8 9 10 10 10 12 14 15 14 14 13 12 10 11 10 8 7 6 5 5
8 7 7 7 7 10 6 6 9 11 11 11 8 5 5 9 6 8 7 7 7 7 8 8 9 10 11 11 11 12 14 15 14 13 10 9 9 9 8 8 7 7 9 11
Wind_Direction
146 178 239 224 206 221 210 239 271 263 271 328 260 260 268 194 211 202 193 196 197 192 169 157 149 144 134 130 133 139 135 135 141 140 124 102 98 86 72 61 51 50 44 40
143 218 234 224 223 222 231 246 244 282 271 215 268 262 260 206 212 208 203 200 201 185 173 164 156 153 152 138 133 138 142 153 151 131 116 120 115 88 82 68 57 49 50 42
216 205 162 207 217 211 220 220 232 251 311 259 275 269 242 230 213 212 215 211 203 194 180 169 163 157 148 144 144 149 154 154 139 125 118 110 106 101 87 68 66 49 49 43
242 226 205 209 208 211 248 216 212 227 240 266 340 290 248 224 216 207 211 205 207 195 177 169 162 159 157 147 142 140 140 128 126 142 144 157 133 130 102 87 72 65 54 50
224 172 200 231 241 183 241 186 204 214 225 287 234 269 235 87 248 248 209 203 195 186 180 174 168 161 153 149 145 138 133 134 149 158 150 135 120 118 120 99 84 66 59 48
259 313 168 189 184 207 156 122 66 59 150 254 210 220 277 249 240 156 108 171 183 179 178 169 161 156 155 153 154 152 149 149 151 148 141 134 136 136 133 119 101 73 55 42
239 240 240 189 188 156 180 160 193 218 198 253 177 207 256 140 201 215 212 197 184 178 174 170 166 167 168 172 165 164 161 149 145 133 116 112 115 115 104 92 82 89 66 50
188 261 207 205 220 215 214 201 212 241 228 257 171 236 243 350 338 339 345 175 168 171 178 177 171 174 180 171 167 162 152 135 126 119 122 126 126 119 113 109 115 96 79 46
189 262 210 180 212 192 210 221 236 262 223 274 238 259 250 264 249 62 101 145 169 178 183 184 182 179 178 174 168 162 154 143 138 134 136 123 124 122 114 115 107 103 105 83
186 282 258 276 147 206 197 153 194 208 234 237 247 258 262 233 233 166 190 192 197 195 192 193 188 180 177 175 167 162 154 147 142 145 133 130 129 117 118 114 107 103 89 84
51 181 203 0 16 184 177 224 234 256 231 251 260 248 345 284 290 351 320 257 226 209 202 198 192 181 176 169 163 159 155 153 149 153 136 128 127 121 113 115 114 99 98 89
357 50 257 253 53 79 74 48 37 232 232 256 271 257 30 41 65 43 18 314 241 220 217 213 188 172 173 173 170 163 162 164 164 153 141 138 129 133 138 132 107 105 105 93
5 29 285 161 200 50 48 33 31 308 307 244 260 244 81 29 13 4 344 324 309 247 205 187 175 181 179 178 171 163 171 174 154 153 143 142 143 145 136 123 126 108 108 104
45 96 322 337 22 55 19 354 16 16 239 350 274 316 309 311 360 333 320 306 306 277 218 199 190 187 183 179 172 171 173 162 156 150 149 146 151 146 140 144 124 116 124 109
113 184 227 237 183 225 273 271 259 241 221 223 260 248 269 276 253 249 263 287 295 295 252 206 202 195 188 180 175 171 164 163 156 150 149 150 150 144 145 135 124 121 123 108
183 225 215 270 258 249 249 258 257 249 248 242 250 264 262 272 283 251 249 247 253 261 275 226 205 190 182 179 172 160 159 158 152 146 142 147 152 145 138 133 133 125 119 102
171 183 169 256 225 215 245 243 236 233 229 224 237 245 270 278 257 252 256 258 256 273 284 200 196 188 180 176 162 165 159 151 147 142 141 145 153 142 136 138 131 125 120 108
192 195 185 257 227 252 252 234 236 234 251 240 250 256 261 258 256 250 260 261 253 224 251 223 178 172 167 154 166 151 148 146 140 138 141 150 151 141 134 122 131 129 118 102
200 200 224 237 235 293 291 263 187 193 250 238 240 246 261 283 302 280 231 256 308 56 285 285 152 144 147 156 151 144 142 140 138 144 149 148 143 144 136 138 147 133 125 115
173 218 218 192 222 246 262 172 159 138 265 201 216 261 302 56 279 287 40 59 18 354 313 133 129 141 145 148 147 146 145 144 147 151 150 145 148 140 141 153 144 130 128 124
184 192 222 228 237 252 253 192 137 204 268 184 168 322 188 226 238 30 352 31 2 348 71 125 128 144 146 151 152 150 148 153 149 141 144 153 155 148 154 150 139 135 129 126
175 181 196 200 213 255 158 117 196 190 188 149 164 247 260 245 274 255 269 166 166 170 134 141 142 139 146 152 150 151 152 137 138 143 150 150 149 157 160 149 138 132 131 130
203 197 175 189 208 219 198 182 191 167 167 207 231 257 265 260 255 313 280 171 176 188 173 166 154 144 152 155 152 143 133 141 148 152 152 156 161 160 162 153 145 140 148 147
238 164 223 157 202 214 211 210 212 191 203 227 241 254 252 231 216 209 191 209 189 183 189 177 156 156 158 153 142 140 143 147 154 152 157 160 158 158 167 160 159 155 162 162
172 159 183 248 283 290 231 231 232 213 220 242 230 227 213 204 214 205 170 203 200 192 185 182 177 172 164 154 148 149 151 155 158 156 159 161 159 160 157 162 165 165 165 171
176 171 190 228 186 216 242 236 222 216 224 227 213 213 224 211 196 178 169 187 190 190 185 184 184 174 161 155 150 154 158 161 159 159 161 161 156 155 152 150 137 144 149 152